When you browse on this site, cookies collect data to enhance your experience and personalize the content and advertising you see.
Visit our Privacy Policy to learn more. By continuing to use the site, you agree to this use of cookies and data.
  • In Austria
  • List of Countries
  • For 7 days
  • Water Temperature
  • Satellite Maps
  • Weather Map
  • News
  • Weather Widgets
  • user-avatar
    Login

    Hourly Weather Kielce

    Today, 21 March, Thursday

    Time Temperature Precipitation Wind Pressure Humidity
    00:00 +2°C° 0 mm 2 mps 746 mmHg 66%
    01:00 +1°C° 0 mm 3 mps 745 mmHg 65%
    02:00 +1°C° 0 mm 3 mps 745 mmHg 65%
    03:00 +1°C° 0 mm 3 mps 745 mmHg 65%
    04:00 +1°C° 0 mm 3 mps 745 mmHg 64%
    05:00 +2°C° 0 mm 3 mps 745 mmHg 64%
    06:00 +1°C° 0 mm 4 mps 745 mmHg 64%
    07:00 +3°C° 0 mm 4 mps 745 mmHg 66%
    08:00 +4°C° 0 mm 4 mps 745 mmHg 67%
    09:00 +5°C° 0 mm 4 mps 745 mmHg 68%
    10:00 +5°C° 0 mm 4 mps 745 mmHg 69%
    11:00 +6°C° 0 mm 4 mps 745 mmHg 69%
    12:00 +7°C° 0 mm 4 mps 745 mmHg 69%
    13:00 +8°C° 0 mm 5 mps 745 mmHg 69%
    14:00 +8°C° 0 mm 5 mps 745 mmHg 70%
    15:00 +8°C° 0 mm 4 mps 744 mmHg 71%
    16:00 +8°C° 0 mm 4 mps 744 mmHg 71%
    17:00 +7°C° 0 mm 4 mps 744 mmHg 77%
    18:00 +7°C° 0 mm 3 mps 744 mmHg 82%
    19:00 +6°C° 0 mm 2 mps 744 mmHg 88%
    20:00 +6°C° 0 mm 2 mps 744 mmHg 90%
    21:00 +6°C° 0 mm 2 mps 744 mmHg 92%
    22:00 +5°C° 0 mm 2 mps 744 mmHg 94%
    23:00 +6°C° 0 mm 2 mps 744 mmHg 93%

    Tomorrow, 22 March, Friday

    Time Temperature Precipitation Wind Pressure Humidity
    00:00 +6°C° 0 mm 2 mps 744 mmHg 92%
    01:00 +5°C° 0 mm 3 mps 744 mmHg 91%
    02:00 +5°C° 0 mm 3 mps 744 mmHg 92%
    03:00 +5°C° 0 mm 3 mps 744 mmHg 93%
    04:00 +5°C° 0 mm 3 mps 744 mmHg 94%
    05:00 +7°C° 0 mm 3 mps 744 mmHg 93%
    06:00 +7°C° 0 mm 3 mps 744 mmHg 93%
    07:00 +7°C° 0 mm 3 mps 744 mmHg 93%
    08:00 +8°C° 0 mm 3 mps 745 mmHg 90%
    09:00 +9°C° 0 mm 3 mps 745 mmHg 86%
    10:00 +10°C° 0 mm 4 mps 745 mmHg 83%
    11:00 +10°C° 0 mm 3 mps 745 mmHg 82%
    12:00 +10°C° 0 mm 3 mps 745 mmHg 82%
    13:00 +10°C° 0 mm 3 mps 745 mmHg 81%
    14:00 +10°C° 0 mm 3 mps 745 mmHg 77%
    15:00 +12°C° 0 mm 2 mps 745 mmHg 74%
    16:00 +12°C° 0 mm 2 mps 744 mmHg 71%
    17:00 +10°C° 0 mm 2 mps 744 mmHg 75%
    18:00 +10°C° 0 mm 1 mps 745 mmHg 79%
    19:00 +9°C° 0 mm 1 mps 745 mmHg 82%
    20:00 +8°C° 0 mm 1 mps 745 mmHg 84%
    21:00 +6°C° 0 mm 0 mps 745 mmHg 86%
    22:00 +6°C° 0 mm 0 mps 745 mmHg 88%
    23:00 +5°C° 0 mm 0 mps 744 mmHg 88%

    Day after tomorrow, 23 March, Saturday

    Time Temperature Precipitation Wind Pressure Humidity
    00:00 +5°C° 0 mm 0 mps 744 mmHg 89%
    01:00 +6°C° 0 mm 1 mps 744 mmHg 90%
    02:00 +5°C° 0 mm 1 mps 744 mmHg 90%
    03:00 +5°C° 0 mm 1 mps 743 mmHg 91%
    04:00 +5°C° 0 mm 1 mps 743 mmHg 91%
    05:00 +5°C° 0 mm 1 mps 743 mmHg 89%
    06:00 +5°C° 0 mm 1 mps 743 mmHg 87%
    07:00 +6°C° 0 mm 1 mps 743 mmHg 85%
    08:00 +7°C° 0 mm 2 mps 743 mmHg 75%
    09:00 +9°C° 0 mm 2 mps 742 mmHg 66%
    10:00 +10°C° 0 mm 2 mps 742 mmHg 57%
    11:00 +13°C° 0 mm 2 mps 742 mmHg 52%
    12:00 +14°C° 0 mm 2 mps 741 mmHg 48%
    13:00 +15°C° 0 mm 2 mps 741 mmHg 44%
    14:00 +15°C° 0 mm 2 mps 741 mmHg 45%
    15:00 +15°C° 0 mm 2 mps 740 mmHg 47%
    16:00 +16°C° 0 mm 2 mps 740 mmHg 48%
    17:00 +14°C° 0 mm 1 mps 740 mmHg 54%
    18:00 +13°C° 0 mm 1 mps 739 mmHg 60%
    19:00 +12°C° 0 mm 1 mps 739 mmHg 66%
    20:00 +11°C° 0 mm 1 mps 739 mmHg 68%
    21:00 +11°C° 0 mm 1 mps 739 mmHg 70%
    22:00 +10°C° 0 mm 1 mps 739 mmHg 73%
    23:00 +9°C° 0 mm 2 mps 739 mmHg 76%

    24 March, Sunday

    Time Temperature Precipitation Wind Pressure Humidity
    00:00 +9°C° 0 mm 2 mps 739 mmHg 79%
    01:00 +9°C° 0 mm 2 mps 739 mmHg 83%
    02:00 +8°C° 0 mm 3 mps 739 mmHg 84%
    03:00 +7°C° 0 mm 4 mps 739 mmHg 86%
    04:00 +6°C° 0 mm 4 mps 740 mmHg 88%
    05:00 +6°C° 0 mm 4 mps 740 mmHg 81%
    06:00 +5°C° 0 mm 4 mps 740 mmHg 74%
    07:00 +4°C° 0 mm 4 mps 740 mmHg 66%
    08:00 +5°C° 0 mm 4 mps 740 mmHg 61%
    09:00 +6°C° 0 mm 4 mps 741 mmHg 55%
    10:00 +8°C° 0 mm 3 mps 741 mmHg 50%
    11:00 +9°C° 0 mm 3 mps 740 mmHg 45%
    12:00 +9°C° 0 mm 3 mps 740 mmHg 41%
    13:00 +10°C° 0 mm 3 mps 740 mmHg 37%
    14:00 +10°C° 0 mm 3 mps 740 mmHg 37%
    15:00 +10°C° 0 mm 3 mps 739 mmHg 38%
    16:00 +10°C° 0 mm 3 mps 739 mmHg 38%
    17:00 +9°C° 0 mm 3 mps 739 mmHg 42%
    18:00 +8°C° 0 mm 3 mps 739 mmHg 46%
    19:00 +7°C° 0 mm 2 mps 739 mmHg 50%
    20:00 +6°C° 0 mm 2 mps 739 mmHg 53%
    21:00 +5°C° 0 mm 2 mps 739 mmHg 55%
    22:00 +5°C° 0 mm 2 mps 739 mmHg 58%
    23:00 +4°C° 0 mm 2 mps 739 mmHg 60%

    25 March, Monday

    Time Temperature Precipitation Wind Pressure Humidity
    00:00 +3°C° 0 mm 2 mps 739 mmHg 62%
    01:00 +3°C° 0 mm 2 mps 739 mmHg 64%
    02:00 +2°C° 0 mm 2 mps 738 mmHg 66%
    03:00 +2°C° 0 mm 2 mps 738 mmHg 69%
    04:00 +1°C° 0 mm 2 mps 738 mmHg 71%
    05:00 +2°C° 0 mm 2 mps 738 mmHg 71%
    06:00 +2°C° 0 mm 2 mps 738 mmHg 72%
    07:00 +1°C° 0 mm 3 mps 738 mmHg 72%
    08:00 +3°C° 0 mm 4 mps 738 mmHg 64%
    09:00 +3°C° 0 mm 5 mps 738 mmHg 56%
    10:00 +4°C° 0 mm 6 mps 738 mmHg 49%
    11:00 +5°C° 0 mm 6 mps 737 mmHg 47%
    12:00 +5°C° 0 mm 7 mps 736 mmHg 45%
    13:00 +6°C° 0 mm 7 mps 736 mmHg 43%
    14:00 +5°C° 0.2 mm 7 mps 735 mmHg 47%
    15:00 +4°C° 0.2 mm 8 mps 735 mmHg 52%
    16:00 +4°C° 0.2 mm 8 mps 734 mmHg 56%
    17:00 +3°C° 0.1 mm 7 mps 734 mmHg 59%
    18:00 +3°C° 0.1 mm 7 mps 734 mmHg 63%
    19:00 +2°C° 0.1 mm 6 mps 734 mmHg 66%
    20:00 +2°C° 0.1 mm 6 mps 734 mmHg 68%
    21:00 +1°C° 0.1 mm 6 mps 733 mmHg 70%
    22:00 0°C° 0.1 mm 5 mps 733 mmHg 72%
    23:00 -1°C° 0.1 mm 6 mps 733 mmHg 72%

    26 March, Tuesday

    Time Temperature Precipitation Wind Pressure Humidity
    00:00 -1°C° 0.1 mm 6 mps 732 mmHg 72%
    01:00 -1°C° 0.1 mm 7 mps 732 mmHg 72%
    02:00 -2°C° 0 mm 6 mps 732 mmHg 73%
    03:00 -2°C° 0 mm 6 mps 732 mmHg 74%
    04:00 -2°C° 0 mm 5 mps 732 mmHg 74%
    05:00 -3°C° 0.1 mm 6 mps 732 mmHg 75%
    06:00 -2°C° 0.1 mm 7 mps 732 mmHg 76%
    07:00 -2°C° 0.1 mm 8 mps 732 mmHg 77%
    08:00 -2°C° 0.5 mm 8 mps 732 mmHg 73%
    09:00 -1°C° 0.5 mm 8 mps 732 mmHg 69%
    10:00 -1°C° 0.5 mm 8 mps 732 mmHg 65%
    11:00 -1°C° 0.2 mm 8 mps 732 mmHg 62%
    12:00 0°C° 0.2 mm 8 mps 732 mmHg 60%
    13:00 +1°C° 0.2 mm 9 mps 732 mmHg 57%
    14:00 0°C° 0.2 mm 9 mps 732 mmHg 60%
    15:00 0°C° 0.2 mm 9 mps 733 mmHg 64%
    16:00 0°C° 0.2 mm 8 mps 733 mmHg 67%
    17:00 -1°C° 0.4 mm 8 mps 733 mmHg 71%
    18:00 -1°C° 0.4 mm 8 mps 734 mmHg 74%
    19:00 -1°C° 0.4 mm 8 mps 735 mmHg 78%
    20:00 -2°C° 0.2 mm 8 mps 735 mmHg 79%
    21:00 -2°C° 0.2 mm 7 mps 736 mmHg 80%
    22:00 -2°C° 0.2 mm 7 mps 736 mmHg 81%
    23:00 -2°C° 0 mm 7 mps 737 mmHg 82%
    Show more